Location: Joplin
(37.0842°N, 94.5131°W)
Time: 20:12:46
(UTC-05:00)

N. Korean satellite - Visible Passes

Search period start: 22 March 2019 00:00
Search period end: 01 April 2019 00:00
Orbit: 456 x 510 km, 97.2° (Epoch: 22 March)

Date Brightness Start Highest point End Pass type
(mag) Time Alt. Az. Time Alt. Az. Time Alt. Az.
24 Mar 9.6 06:44:35 10° NE 06:47:24 22° E 06:50:15 10° SSE visible
25 Mar 10.5 06:21:44 10° E 06:22:26 10° E 06:23:07 10° ESE visible
28 Mar 9.8 06:38:52 10° NE 06:41:29 19° E 06:44:07 10° SE visible
